This demonstration page uses our WeatherBlox Daily Observations layout. Learn more.

Hourly Observations for November 30, 2020

Temp ( °F °C ) Dew Point ( °F °C ) Humidity (%) Winds ( mph kmh ) Pressure ( in mb ) Visibility ( mi km ) Precip ( " mm )
12:53 am 00:53 Cloudy 48 8.9 35 1.7 61 61 N 6 9 29.78 1009 10 16.0934 0.001 0.001
1:53 am 01:53 Cloudy with Rain 44 6.7 37 2.8 76 76 N 5 7 29.78 1008 5 8.0467 0.05 1.27
2:23 am 02:23 Cloudy with Heavy Rain 43 6.1 37 2.8 80 80 N 14 22 29.79 1009 4 6.43736 0.09 2.286
2:44 am 02:44 Cloudy with Light Rain 42 5.6 37 2.8 82 82 NNE 7 11 29.78 1008 7 11.26538 0.15 3.81
2:53 am 02:53 Cloudy with Rain 42 5.6 37 2.8 82 82 NNE 8 13 29.75 1008 6 9.65604 0.18 4.572
3:12 am 03:12 Cloudy with Light Rain 42 5.6 37 2.8 82 82 N 8 13 29.77 1008 8 12.87472 0.03 0.762
3:53 am 03:53 Cloudy with Light Rain 41 5 36 2.2 82 82 NNE 9 15 29.73 1007 9 14.48406 0.09 2.286
4:53 am 04:53 Cloudy with Rain 39 3.9 36 2.2 89 89 NNE 8 13 29.73 1007 6 9.65604 0.12 3.048
5:12 am 05:12 Cloudy with Rain 39 3.9 35 1.7 86 86 NNE 6 9 29.74 1007 5 8.0467 0.05 1.27
5:53 am 05:53 Cloudy with Rain 38 3.3 35 1.7 89 89 NNW 10 17 29.72 1007 5 8.0467 0.12 3.048
6:20 am 06:20 Cloudy with Rain 37 2.8 34 1.1 89 89 NNW 9 15 29.73 1007 6 9.65604 0.05 1.27
6:53 am 06:53 Cloudy with Light Rain 37 2.8 34 1.1 89 89 NNW 8 13 29.71 1006 7 11.26538 0.08 2.032
7:53 am 07:53 Cloudy with Rain 36 2.2 34 1.1 93 93 NNW 7 11 29.72 1007 5 8.0467 0.08 2.032
8:53 am 08:53 Cloudy with Light Rain 37 2.8 34 1.1 89 89 NW 9 15 29.72 1006 5 8.0467 0.07 1.778
9:53 am 09:53 Cloudy with Light Rain 37 2.8 35 1.7 93 93 NW 9 15 29.72 1006 5 8.0467 0.04 1.016
10:53 am 10:53 Cloudy with Light Rain 37 2.8 34 1.1 89 89 NW 10 17 29.74 1007 10 16.0934 0.02 0.508
11:53 am 11:53 Cloudy with Light Rain 36 2.2 36 2.2 100 100 VRB 7 11 29.75 1008 6 9.65604 0.04 1.016
12:53 pm 12:53 Cloudy with Light Snow 35 1.7 35 1.7 100 100 NW 12 19 29.76 1008 3 4.82802 0.04 1.016
1:53 pm 13:53 Cloudy with Light Snow 36 2.2 35 1.7 97 97 NW 12 19 29.77 1008 3 4.82802 0.02 0.508
2:53 pm 14:53 Cloudy with Light Rain 36 2.2 36 2.2 100 100 NW 7 11 29.78 1008 4 6.43736 0.02 0.508
3:53 pm 15:53 Cloudy with Light Snow 35 1.7 35 1.7 100 100 WNW 8 13 29.79 1009 8 12.87472 0.001 0.001
4:51 pm 16:51 Cloudy with Light Snow 34 1 34 1 100 100 WNW 7 11 29.83 1010 1.5 2.41401 0.02 0.508
4:53 pm 16:53 Cloudy with Light Snow 34 1.1 34 1.1 100 100 WNW 7 11 29.81 1009 1.5 2.41401 0.02 0.508
4:59 pm 16:59 Cloudy with Light Snow 34 1.1 34 1.1 100 100 VRB 6 9 29.83 1010 2 3.21868 0.001 0.001
5:08 pm 17:08 Cloudy with Light Snow 34 1.1 34 1.1 100 100 WNW 9 15 29.83 1010 1.5 2.41401 0.01 0.254
5:32 pm 17:32 Cloudy with Light Snow 34 1.1 34 1.1 100 100 VRB 7 11 29.84 1010 1.5 2.41401 0.02 0.508
5:47 pm 17:47 Cloudy with Light Snow 34 1 34 1 100 100 NW 12 19 29.85 1011 3 4.82802 0.03 0.762
5:53 pm 17:53 Cloudy with Light Snow 34 1.1 33 0.6 97 97 NW 12 19 29.82 1010 3 4.82802 0.03 0.762
5:56 pm 17:56 Cloudy with Light Snow 34 1.1 33 0.6 97 97 NW 10 17 29.85 1011 2.5 4.02335 0.001 0.001
6:13 pm 18:13 Cloudy with Light Snow 34 1.1 34 1.1 100 100 WNW 7 11 29.85 1011 4 6.43736 0.001 0.001
6:53 pm 18:53 Cloudy with Light Snow 34 1.1 34 1.1 100 100 WNW 8 13 29.83 1010 4 6.43736 0.02 0.508
7:06 pm 19:06 Cloudy with Light Snow 34 1.1 34 1.1 100 100 NW 8 13 29.86 1011 4 6.43736 0.001 0.001
7:14 pm 19:14 Cloudy with Light Snow 34 1.1 34 1.1 100 100 NW 12 19 29.86 1011 4 6.43736 0.001 0.001
7:53 pm 19:53 Cloudy with Light Snow 33 0.6 33 0.6 100 100 WNW 10 17 29.85 1011 2 3.21868 0.01 0.254
7:55 pm 19:55 Cloudy with Light Snow 33 0.6 33 0.6 100 100 WNW 10 17 29.87 1011 1.75 2.816345 0.001 0.001
8:02 pm 20:02 Cloudy with Light Snow 33 0.6 33 0.6 100 100 NW 10 17 29.87 1011 2 3.21868 0.01 0.254
8:53 pm 20:53 Cloudy with Light Snow 33 0.6 32 0 96 96 W 12 19 29.86 1011 2 3.21868 0.01 0.254
9:53 pm 21:53 Cloudy with Light Snow 32 0 32 0 100 100 W 9 15 29.86 1011 1.75 2.816345 0.01 0.254
10:05 pm 22:05 Cloudy with Light Snow 32 0 32 0 100 100 W 6 9 29.89 1012 2 3.21868 0.001 0.001
10:35 pm 22:35 Cloudy with Light Snow 32 0 32 0 100 100 W 10 17 29.89 1012 3 4.82802 0.01 0.254
10:53 pm 22:53 Cloudy with Light Snow 32 0 30 -1.1 92 92 WNW 9 15 29.87 1012 3 4.82802 0.01 0.254
11:53 pm 23:53 Cloudy with Light Snow 32 0 29 -1.7 88 88 W 10 17 29.88 1012 3 4.82802 0.001 0.001

Powered by AerisWeather